Home   Weather   Kaliningrad   Past weeks

Flag for Russia Past Weather in Kaliningrad, Russia — Yesterday and Last 2 Weeks

Now
59 °F

Clear.


Feels Like: 59 °F
Forecast: 54 / 72 °F
Wind: 1 mph from North

Location: Kaliningrad/Khrabrovo Airport

Current Time: Jul 22, 2017 at 11:02:01 pm

Latest Report: Jul 22, 2017 at 10:00 pm


Visibility: 10 mi

Pressure: 30.09 "Hg

Humidity: 82%

Dew Point: 54 °F

Location of KaliningradLocation

Past Weather in Kaliningrad — Graph

°F

Kaliningrad Temperature Yesterday

Maximum temperature yesterday: 63 °F (at 11:00 am)
Minimum temperature yesterday: 52 °F (at 1:00 am)
Average temperature yesterday: 58 °F

High & Low Weather Summary for the Past Weeks

 TemperatureHumidityPressure
High77 °F (Jul 10, 3:30 pm)100% (Jul 8, 11:00 pm)30.12 "Hg (Jul 8, 11:00 pm)
Low46 °F (Jul 10, 3:00 am)36% (Jul 20, 4:00 pm)29.59 "Hg (Jul 13, 3:00 am)
Average62 °F75%29.95 "Hg
* Reported Jul 7 9:00 pm — Jul 22 9:30 pm, Kaliningrad. Weather by CustomWeather, © 2017

Note: Actual official high and low records may vary slightly from our data, if they occured in-between our weather recording intervals... More about our weather records

Advertising

Kaliningrad Weather History for the Previous 24 Hours

Scroll right to see more
 ConditionsComfort  
Time TempWeatherWind HumidityBarometerVisibility
9:30 pm
Sat, Jul 22
61 °FSunny.1 mph77%30.09 "Hg10 mi
9:00 pm61 °FSunny.1 mph77%30.07 "Hg10 mi
8:30 pm63 °FSunny.3 mph73%30.07 "Hg10 mi
8:00 pm64 °FPassing clouds.3 mph68%30.07 "HgN/A
7:30 pm64 °FPassing clouds.6 mph68%30.07 "HgN/A
7:00 pm66 °FPassing clouds.6 mph60%30.07 "HgN/A
6:30 pm66 °FPassing clouds.8 mph64%30.07 "HgN/A
6:00 pm66 °FPassing clouds.10 mph64%30.07 "HgN/A
5:30 pm68 °FPassing clouds.13 mph64%30.07 "HgN/A
5:00 pm68 °FPassing clouds.13 mph60%30.09 "HgN/A
4:30 pm68 °FPassing clouds.13 mph64%30.07 "HgN/A
4:00 pm68 °FPassing clouds.13 mph60%30.07 "HgN/A
3:30 pm70 °FPassing clouds.13 mph57%30.09 "HgN/A
3:00 pm70 °FPassing clouds.10 mph57%30.09 "HgN/A
2:30 pm70 °FPassing clouds.10 mph60%30.09 "HgN/A
2:00 pm70 °FPassing clouds.8 mph53%30.09 "HgN/A
1:30 pm70 °FPassing clouds.8 mph57%30.09 "HgN/A
1:00 pm70 °FPassing clouds.10 mph57%30.09 "HgN/A
12:30 pm68 °FPassing clouds.8 mph60%30.09 "HgN/A
12:00 pm70 °FPassing clouds.8 mph53%30.09 "HgN/A
11:30 am68 °FPassing clouds.8 mph60%30.09 "HgN/A
11:00 am68 °FPassing clouds.8 mph56%30.07 "HgN/A
10:30 am68 °FPassing clouds.8 mph53%30.07 "HgN/A
10:00 am68 °FPassing clouds.10 mph49%30.07 "HgN/A
9:30 am68 °FPassing clouds.10 mph49%30.07 "HgN/A
9:00 am66 °FPassing clouds.8 mph56%30.07 "HgN/A
8:30 am64 °FPassing clouds.8 mph56%30.07 "HgN/A
8:00 am64 °FPassing clouds.8 mph60%30.07 "HgN/A
7:30 am63 °FSunny.8 mph68%30.07 "Hg10 mi
6:30 am61 °FSunny.1 mph83%30.04 "Hg10 mi
6:00 am57 °FSunny.1 mph94%30.04 "Hg10 mi
5:30 am55 °FScattered clouds.No wind100%30.04 "HgN/A
5:00 am55 °FPassing clouds.1 mph100%30.04 "HgN/A
4:30 am55 °FPassing clouds.1 mph94%30.04 "HgN/A
4:00 am55 °FPassing clouds.1 mph94%30.04 "HgN/A
3:00 am55 °FPassing clouds.No wind94%30.04 "HgN/A
2:00 am55 °FPassing clouds.1 mph94%30.04 "HgN/A
1:00 am57 °FPassing clouds.No wind88%30.01 "HgN/A
12:00 am57 °FPassing clouds.1 mph82%30.01 "HgN/A
11:30 pm
Fri, Jul 21
57 °FPassing clouds.1 mph82%30.01 "HgN/A
11:00 pm57 °FOvercast.1 mph82%30.01 "HgN/A
Weather by CustomWeather, © 2017

See weather overviewHow to use our weather pages